Temp
12 12 12 12 12 12 12 13 13 11 12 12 11 11 12 10 9 9 9 8 7 7
13 13 13 13 12 12 12 13 13 13 12 11 11 11 11 10 9 9 8 8 7 6
13 13 13 13 13 12 12 13 12 11 12 12 12 11 9 9 8 8 8 7 6 4
13 13 13 13 12 12 12 12 11 10 11 11 11 9 9 8 8 8 8 6 5 4
11 11 11 11 12 12 10 10 9 9 9 10 9 9 8 8 8 7 7 5 4 3
14 13 13 13 12 12 10 10 10 11 10 9 8 8 8 8 7 6 5 4 3 3
14 15 14 13 12 12 11 10 10 10 9 9 8 8 7 7 6 6 4 3 2 2
14 14 14 13 14 11 9 10 9 9 8 8 7 7 7 6 5 4 3 2 1 1
15 14 14 13 10 10 9 9 8 7 7 6 6 6 5 4 4 3 2 1 0 -0
12 12 11 10 9 9 8 7 7 6 5 5 5 5 4 3 2 1 1 0 -0 -1
10 10 9 9 8 8 7 6 5 5 5 5 4 4 3 1 1 0 -1 -1 -1 -1
9 9 8 7 7 6 5 5 4 4 4 3 3 1 1 -0 -1 -1 -1 -1 -2 -3
8 8 8 7 7 6 5 4 3 3 2 1 1 -0 -1 -2 -2 -2 -2 -3 -3 -3
8 8 8 7 6 5 4 3 2 1 0 -0 -1 -1 -1 -2 -2 -2 -3 -3 -4 -4
Height
1500 1503 1506 1508 1511 1514 1516 1519 1521 1521 1521 1525 1526 1528 1527 1528 1530 1534 1536 1537 1538 1537
1490 1494 1497 1500 1502 1507 1512 1514 1513 1515 1517 1519 1519 1521 1522 1522 1526 1528 1529 1530 1530 1531
1486 1489 1492 1495 1499 1501 1506 1508 1509 1508 1512 1511 1513 1511 1514 1516 1519 1521 1522 1522 1523 1525
1478 1483 1487 1489 1494 1498 1497 1498 1501 1503 1503 1504 1506 1508 1509 1511 1513 1513 1514 1514 1517 1519
1481 1479 1481 1484 1485 1487 1476 1494 1484 1492 1495 1496 1498 1502 1503 1504 1506 1506 1506 1508 1511 1514
1470 1466 1470 1471 1476 1476 1479 1477 1484 1487 1487 1488 1493 1496 1497 1497 1499 1500 1502 1504 1506 1509
1458 1458 1461 1464 1464 1469 1472 1478 1478 1481 1482 1484 1488 1490 1491 1492 1494 1495 1496 1498 1501 1504
1451 1453 1454 1455 1458 1462 1467 1470 1472 1475 1478 1479 1483 1484 1485 1487 1488 1490 1491 1494 1497 1499
1443 1446 1448 1451 1454 1458 1461 1465 1467 1469 1471 1474 1476 1477 1479 1481 1483 1484 1487 1491 1493 1495
1437 1439 1444 1448 1451 1454 1457 1460 1462 1463 1466 1469 1471 1473 1475 1476 1478 1481 1485 1488 1489 1490
1436 1439 1441 1445 1448 1449 1453 1454 1457 1460 1463 1465 1467 1469 1471 1473 1476 1479 1481 1483 1485 1485
1432 1436 1440 1443 1446 1449 1451 1454 1456 1459 1461 1462 1464 1467 1469 1471 1474 1476 1478 1479 1480 1479
1429 1432 1435 1438 1441 1444 1447 1450 1453 1455 1458 1461 1463 1465 1468 1470 1473 1474 1476 1476 1474 1474
1424 1428 1431 1434 1436 1439 1442 1446 1448 1451 1455 1459 1462 1464 1467 1469 1470 1471 1471 1471 1471 1469
Wind_Speed
44 44 45 44 43 41 40 37 33 36 33 29 28 33 38 36 34 29 32 28 32 30
45 47 47 45 46 44 41 34 39 30 31 27 30 31 37 38 34 33 33 29 30 28
48 47 46 46 45 40 39 40 32 30 34 36 35 34 39 38 35 35 34 30 29 27
50 50 49 49 46 43 43 39 28 34 34 38 38 38 38 35 34 34 31 29 28 28
39 39 41 42 46 44 31 26 34 41 33 33 36 34 32 32 33 32 26 25 27 28
33 31 44 40 41 36 39 38 39 34 30 25 27 28 27 27 25 21 21 23 26 27
37 34 38 37 39 43 39 38 41 31 25 23 23 22 22 21 19 20 22 23 22 21
45 34 31 36 35 32 38 33 29 27 25 21 20 20 20 20 18 19 18 19 18 18
34 34 30 28 27 26 27 26 24 22 21 21 22 20 19 18 16 16 16 16 16 16
29 28 28 29 26 25 23 22 20 20 21 21 20 20 19 17 17 15 15 15 17 20
31 30 27 25 23 22 22 19 17 18 19 20 19 17 18 18 16 15 17 19 19 19
24 22 21 21 21 19 18 17 17 16 16 16 18 17 17 16 16 17 18 17 17 18
19 17 18 17 18 17 16 16 15 16 15 16 17 17 15 15 15 15 15 17 19 21
19 17 16 16 16 16 17 17 17 17 16 16 15 16 17 15 14 15 16 18 20 19
Wind_Direction
221 224 226 230 233 237 237 241 246 241 239 246 258 257 251 248 241 249 247 258 255 267
223 226 229 232 236 242 240 241 242 240 245 254 259 263 257 247 242 248 245 268 264 257
227 229 233 239 243 246 237 240 240 252 247 263 254 250 245 235 238 242 249 262 252 246
234 236 240 243 244 245 233 232 249 257 262 260 257 253 234 238 236 242 258 250 242 242
238 241 240 242 250 253 227 228 256 256 258 255 252 237 236 243 248 254 251 242 239 244
235 258 247 247 248 247 238 232 239 254 249 238 235 244 246 245 246 247 247 240 242 250
231 248 243 247 246 246 238 245 236 240 229 233 238 235 235 238 242 244 235 236 246 245
235 235 239 240 240 235 236 226 218 222 229 226 225 232 234 235 235 239 226 234 229 232
225 228 226 223 211 204 203 211 217 222 223 226 229 228 226 229 227 217 217 213 223 236
215 210 202 192 194 202 206 209 212 214 216 219 221 220 226 219 203 198 203 214 222 236
185 184 185 190 197 203 210 210 209 207 206 208 206 202 192 184 188 194 206 219 243 257
192 194 188 187 192 196 201 199 195 191 190 188 184 182 189 190 196 209 225 236 249 254
199 197 193 196 194 195 194 191 182 175 174 177 183 183 194 202 207 224 234 240 253 265
200 203 204 202 196 188 180 177 175 179 175 181 192 201 212 219 227 235 245 257 268 276